This demonstration page uses our WeatherBlox Daily Observations layout. Learn more.

Left ArrowRight Arrow

Hourly Observations for October 8, 2018

Temp ( °F °C ) Dew Point ( °F °C ) Humidity (%) Winds ( mph kmh ) Pressure ( in mb ) Visibility ( mi km ) Precip ( " mm )
12:35 am 00:35 Cloudy with Light Rain 52 11.1 51 10.6 97 97 NW 9 15 29.97 1015 1.75 2.816345 0 0.0254
12:54 am 00:54 Cloudy with Light Rain 52 11.1 51 10.6 97 97 NNW 10 17 29.98 1015 1.75 2.816345 0 0.0254
1:06 am 01:06 Cloudy with Mist and Fog 52 11.1 51 10.6 97 97 NW 8 13 30 1016 2.5 4.02335 0.01 0.254
1:15 am 01:15 Cloudy with Mist and Fog 52 11.1 51 10.6 97 97 NW 8 13 30 1016 3 4.82802 0.01 0.254
1:26 am 01:26 Cloudy 52 11.1 50 10 93 93 NW 8 13 30 1016 7 11.26538 0.01 0.254
1:54 am 01:54 Cloudy 52 11.1 50 10 93 93 NNE 8 13 29.98 1015 10 16.0934 0.01 0.254
2:54 am 02:54 Cloudy with Light Rain 52 11.1 51 10.6 97 97 N 6 9 29.96 1015 4 6.43736 0.01 0.254
3:24 am 03:24 Cloudy with Light Rain 52 11.1 51 10.6 97 97 N 3 6 29.94 1014 5 8.0467 0.01 0.254
3:29 am 03:29 Cloudy with Light Rain 52 11.1 51 10.6 97 97 N 5 7 29.94 1014 5 8.0467 0.01 0.254
3:36 am 03:36 Cloudy with Light Rain 52 11.1 51 10.6 97 97 N 6 9 29.94 1014 8 12.87472 0.01 0.254
3:50 am 03:50 Cloudy with Light Rain 52 11 52 11 100 100 N 6 9 29.94 1014 6 9.65604 0.01 0.254
3:54 am 03:54 Cloudy with Light Rain 52 11.1 51 10.6 97 97 N 6 9 29.94 1014 5 8.0467 0.01 0.254
4:47 am 04:47 Cloudy 52 11.1 52 11.1 100 100 Calm 29.91 1013 10 16.0934 0.01 0.254
4:54 am 04:54 Cloudy 52 11.1 52 11.1 100 100 Calm 29.92 1013 10 16.0934 0.01 0.254
5:45 am 05:45 Cloudy 53 11.7 52 11.1 96 96 NE 5 7 29.91 1013 10 16.0934 0 0
5:54 am 05:54 Cloudy 53 11.7 52 11.1 96 96 NE 5 7 29.92 1013 10 16.0934 0 0
6:46 am 06:46 Cloudy with Mist and Fog 53 11.7 52 11.1 96 96 NE 5 7 29.91 1013 1.75 2.816345 0 0
6:54 am 06:54 Cloudy with Mist and Fog 53 11.7 52 11.1 96 96 NE 5 7 29.91 1013 1.5 2.41401 0 0
7:03 am 07:03 Cloudy with Mist and Fog 53 11.7 52 11.1 96 96 NE 5 7 29.91 1013 3 4.82802 0 0
7:11 am 07:11 Cloudy with Mist and Fog 53 11.7 52 11.1 96 96 NNE 5 7 29.91 1013 1.5 2.41401 0 0
7:54 am 07:54 Cloudy with Mist and Fog 53 11.7 52 11.1 96 96 NNE 3 6 29.92 1013 1.5 2.41401 0 0
8:02 am 08:02 Cloudy with Mist and Fog 53 11.7 52 11.1 96 96 NNE 3 6 29.91 1013 1.5 2.41401 0 0
8:54 am 08:54 Cloudy with Mist and Fog 53 11.7 52 11.1 96 96 N 3 6 29.95 1014 1.5 2.41401 0 0
9:41 am 09:41 Cloudy with Rain 54 12.2 53 11.7 97 97 NNW 5 7 29.97 1015 1 1.60934 0.05 1.27
9:54 am 09:54 Cloudy with Rain 53 11.7 53 11.7 100 100 N 6 9 29.95 1014 1 1.60934 0.09 2.286
9:56 am 09:56 Cloudy with Rain 53 11.7 53 11.7 100 100 N 6 9 29.94 1014 2.5 4.02335 0 0.0254
10:04 am 10:04 Cloudy with Light Rain 54 12.2 53 11.7 97 97 N 6 9 29.94 1014 4 6.43736 0.01 0.254
10:18 am 10:18 Cloudy with Rain 54 12.2 53 11.7 97 97 N 5 7 29.94 1014 2.5 4.02335 0.04 1.016
10:25 am 10:25 Cloudy with Rain 54 12.2 53 11.7 97 97 N 6 9 29.94 1014 4 6.43736 0.05 1.27
10:54 am 10:54 Cloudy with Light Rain 55 12.8 54 12.2 96 96 NNE 6 9 29.92 1013 5 8.0467 0.07 1.778
11:05 am 11:05 Cloudy with Light Rain 55 12.8 54 12.2 96 96 NNE 8 13 29.91 1013 7 11.26538 0.01 0.254
11:18 am 11:18 Cloudy with Light Rain 55 12.8 54 12.2 96 96 NE 8 13 29.91 1013 10 16.0934 0.02 0.508
11:54 am 11:54 Cloudy 56 13.3 55 12.8 97 97 Calm 29.92 1013 10 16.0934 0.03 0.762
12:54 pm 12:54 Cloudy with Light Rain 57 13.9 55 12.8 93 93 NNW 6 9 29.92 1013 4 6.43736 0.01 0.254
1:54 pm 13:54 Cloudy with Light Rain 56 13.3 55 12.8 97 97 N 9 15 29.9 1013 7 11.26538 0.01 0.254
2:54 pm 14:54 Cloudy with Rain 56 13.3 54 12.2 93 93 N 6 9 29.89 1012 4 6.43736 0.11 2.794
3:12 pm 15:12 Cloudy with Rain 56 13.3 54 12.2 93 93 N 5 7 29.91 1013 4 6.43736 0.02 0.508
3:39 pm 15:39 Cloudy with Light Rain 56 13.3 54 12.2 93 93 NNE 7 11 29.88 1012 9 14.48406 0.06 1.524
3:52 pm 15:52 Cloudy with Light Rain 57 14 55 13 94 94 NE 7 11 29.88 1012 10 16.0934 0.06 1.524
3:54 pm 15:54 Cloudy with Light Rain 57 13.9 55 12.8 93 93 NE 7 11 29.87 1012 10 16.0934 0.06 1.524
4:13 pm 16:13 Cloudy with Light Rain 57 13.9 55 12.8 93 93 NNE 9 15 29.85 1011 10 16.0934 0 0.0254
4:44 pm 16:44 Cloudy 57 13.9 55 12.8 93 93 NE 6 9 29.88 1012 10 16.0934 0 0.0254
4:54 pm 16:54 Cloudy with Light Rain 57 13.9 56 13.3 96 96 E 5 7 29.88 1012 10 16.0934 0 0.0254
5:54 pm 17:54 Cloudy with Light Rain 57 13.9 56 13.3 96 96 E 8 13 29.85 1011 6 9.65604 0.01 0.254
6:54 pm 18:54 Cloudy with Light Rain 57 13.9 56 13.3 96 96 WNW 13 20 29.9 1012 10 16.0934 0.01 0.254
7:11 pm 19:11 Cloudy with Light Rain 57 13.9 56 13.3 96 96 NW 12 19 29.91 1013 2.5 4.02335 0 0.0254
7:20 pm 19:20 Cloudy with Light Rain 54 12.2 53 11.7 97 97 NNW 18 30 29.91 1013 3 4.82802 0 0.0254
7:31 pm 19:31 Cloudy 53 11.7 51 10.6 93 93 NW 17 28 29.91 1013 8 12.87472 0 0.0254
7:54 pm 19:54 Cloudy 52 11.1 50 10 93 93 NNW 12 19 29.92 1013 10 16.0934 0 0.0254
8:54 pm 20:54 Cloudy with Light Rain 52 11.1 50 10 93 93 NE 5 7 29.92 1013 10 16.0934 0 0.0254
9:54 pm 21:54 Cloudy with Light Rain 52 11.1 50 10 93 93 NNW 6 9 29.95 1014 10 16.0934 0.01 0.254
10:08 pm 22:08 Cloudy with Light Rain 52 11.1 50 10 93 93 WNW 9 15 29.97 1015 10 16.0934 0 0.0254
10:31 pm 22:31 Cloudy with Light Rain 52 11.1 49 9.4 89 89 N 6 9 29.94 1014 10 16.0934 0 0.0254
10:54 pm 22:54 Cloudy 52 11.1 50 10 93 93 NNE 3 6 29.96 1014 10 16.0934 0 0.0254
11:03 pm 23:03 Cloudy 52 11.1 50 10 93 93 NNE 5 7 29.94 1014 10 16.0934 0 0
11:46 pm 23:46 Cloudy 52 11.1 50 10 93 93 NNW 8 13 29.97 1015 10 16.0934 0 0
11:54 pm 23:54 Cloudy 52 11.1 50 10 93 93 NNW 5 7 29.96 1015 10 16.0934 0 0

Powered by AerisWeather